Palermo, Italy

4:53 AM CET on November 22, 2017 (GMT +0100)
Punta Raisi

Weather History for LICJ - September, 2017

Change the Weather History Date:

Wednesday, September 13, 2017

  Actual Average Record
Temperature  
Mean Temperature 73 °F -  
Max Temperature 78 °F 77 °F 89 °F (2008)
Min Temperature 68 °F 68 °F 64 °F (2001)
Cooling Degree Days 8    
Growing Degree Days 23 (Base 50)    
Moisture  
Dew Point 64 °F    
Average Humidity 66    
Maximum Humidity 78    
Minimum Humidity 45    
Precipitation  
Precipitation 0.00 in 0.09 in - ()
Sea Level Pressure  
Sea Level Pressure 30.11 in    
Wind  
Wind Speed 8 mph ()    
Max Wind Speed 22 mph    
Max Gust Speed -    
Visibility 7.6 miles    
Events      
Averages and records for this station are not official NWS values.
T = Trace of Precipitation, MM = Missing Value Source: Averaged Metar Reports

Daily Weather History Graph

Daily Weather History Graph

Search for Another Location

Airport or City:

Trip Planner

Search our weather history database for the weather conditions in past years. The results will help you decide how hot, cold, wet, or windy it might be!

Date:

Astronomy

Sep. 13, 2017 Rise Set
Actual Time 6:47 AM CEST 7:18 PM CEST
Civil Twilight 6:21 AM CEST 7:45 PM CEST
Nautical Twilight 5:49 AM CEST 8:16 PM CEST
Astronomical Twilight 5:17 AM CEST 8:48 PM CEST
Moon No Moon Rise 2:12 PM CEST (9/13)
Length of Visible Light 13h 24m
Length of Day
12h 31m
Waning Gibbous, 48% of the Moon is Illuminated
Sep 13
Waning Gibbous
Sep 20
New
Sep 28
First Quarter
Oct 5
Full
Oct 12
Last Quarter

Hourly Weather History & Observations

Time (CEST) Temp. Dew Point Humidity Pressure Visibility Wind Dir Wind Speed Gust Speed Precip Events Conditions
12:20 AM 73.4 °F 62.6 °F 69% 30.04 in - Variable 5.8 mph - N/A   Clear
12:50 AM 75.2 °F 62.6 °F 65% 30.04 in - SW 6.9 mph - N/A   Clear
1:20 AM 73.4 °F 60.8 °F 65% 30.06 in - Variable 3.5 mph - N/A   Clear
1:50 AM 73.4 °F 60.8 °F 65% 30.06 in - SW 6.9 mph - N/A   Clear
2:00 AM 75 °F 60 °F 49% 30.07 in 19 mi SSW 10.4 mph - -  
2:20 AM 75.2 °F 59.0 °F 57% 30.06 in - SSW 8.1 mph - N/A   Clear
2:50 AM 75.2 °F 57.2 °F 53% 30.06 in - South 6.9 mph - N/A   Clear
3:20 AM 75.2 °F 57.2 °F 53% 30.06 in - South 6.9 mph - N/A   Clear
3:50 AM 75.2 °F 57.2 °F 53% 30.04 in - South 6.9 mph - N/A   Clear
4:20 AM 75.2 °F 64.4 °F 69% 30.04 in - East 9.2 mph - N/A   Clear
4:50 AM 73.4 °F 64.4 °F 73% 30.04 in - NE 13.8 mph - N/A   Clear
5:00 AM 73 °F 64 °F 66% 30.06 in 16 mi NE 15.0 mph - -  
5:20 AM 73.4 °F 62.6 °F 69% 30.04 in - ENE 12.7 mph - N/A   Clear
5:50 AM 71.6 °F 62.6 °F 73% 30.04 in - Variable 4.6 mph - N/A   Clear
6:20 AM 71.6 °F 59.0 °F 64% 30.06 in - Variable 2.3 mph - N/A   Clear
6:50 AM 71.6 °F 59.0 °F 64% 30.06 in - Variable 3.5 mph - N/A   Clear
7:20 AM 69.8 °F 57.2 °F 64% 30.06 in - Variable 4.6 mph - N/A   Clear
7:50 AM 71.6 °F 57.2 °F 60% 30.09 in - South 4.6 mph - N/A   Clear
8:00 AM 74 °F 57 °F 45% 30.10 in 12 mi South 4.6 mph - -  
8:20 AM 75.2 °F 57.2 °F 53% 30.09 in - South 4.6 mph - N/A   Clear
8:50 AM 78.8 °F 60.8 °F 54% 30.09 in - SW 5.8 mph - N/A   Clear
9:20 AM 78.8 °F 62.6 °F 57% 30.12 in - NW 3.5 mph - N/A   Clear
9:50 AM 77.0 °F 64.4 °F 65% 30.12 in - NW 5.8 mph - N/A   Clear
10:20 AM 77.0 °F 64.4 °F 65% 30.12 in - NW 5.8 mph - N/A   Clear
10:50 AM 77.0 °F 64.4 °F 65% 30.12 in 6.2 mi NNW 6.9 mph - N/A   Partly Cloudy
11:20 AM 78.8 °F 66.2 °F 65% 30.15 in 6.2 mi WNW 9.2 mph - N/A   Partly Cloudy
11:50 AM 78.8 °F 64.4 °F 61% 30.15 in 6.2 mi NW 9.2 mph - N/A   Partly Cloudy
12:20 PM 78.8 °F 66.2 °F 65% 30.15 in 6.2 mi NW 9.2 mph - N/A   Partly Cloudy
12:50 PM 78.8 °F 66.2 °F 65% 30.15 in 6.2 mi NW 9.2 mph - N/A   Partly Cloudy
1:20 PM 78.8 °F 69.8 °F 74% 30.15 in 6.2 mi NW 9.2 mph - N/A   Partly Cloudy
1:50 PM 77.0 °F 68.0 °F 74% 30.15 in 6.2 mi NW 10.4 mph - N/A   Partly Cloudy
2:20 PM 78.8 °F 68.0 °F 69% 30.15 in 6.2 mi NW 8.1 mph - N/A   Scattered Clouds
2:50 PM 78.8 °F 68.0 °F 69% 30.15 in 6.2 mi NW 6.9 mph - N/A   Partly Cloudy
3:20 PM 78.8 °F 68.0 °F 69% 30.15 in 6.2 mi WNW 5.8 mph - N/A   Partly Cloudy
3:50 PM 77.0 °F 68.0 °F 74% 30.15 in 6.2 mi NW 6.9 mph - N/A   Partly Cloudy
4:20 PM 78.8 °F 68.0 °F 69% 30.15 in 6.2 mi NNW 5.8 mph - N/A   Partly Cloudy
4:50 PM 78.8 °F 68.0 °F 69% 30.15 in 6.2 mi North 5.8 mph - N/A   Scattered Clouds
5:00 PM 78 °F 68 °F 63% 30.16 in 19 mi North 5.8 mph - -   Partly Cloudy
5:20 PM 78.8 °F 68.0 °F 69% 30.15 in 6.2 mi North 5.8 mph - N/A   Scattered Clouds
6:50 PM 77.0 °F 66.2 °F 69% 30.12 in 6.2 mi NE 21.9 mph - N/A   Partly Cloudy
7:20 PM 75.2 °F 66.2 °F 73% 30.12 in 6.2 mi NE 20.7 mph - N/A   Partly Cloudy
7:50 PM 75.2 °F 66.2 °F 73% 30.12 in 6.2 mi NE 20.7 mph - N/A   Partly Cloudy
8:20 PM 75.2 °F 66.2 °F 73% 30.15 in 6.2 mi NE 21.9 mph - N/A   Partly Cloudy
8:50 PM 75.2 °F 66.2 °F 73% 30.15 in 6.2 mi NE 19.6 mph - N/A   Partly Cloudy
9:20 PM 75.2 °F 66.2 °F 73% 30.15 in 6.2 mi NE 20.7 mph - N/A   Partly Cloudy
9:50 PM 75.2 °F 66.2 °F 73% 30.15 in 6.2 mi NE 19.6 mph - N/A   Partly Cloudy
10:20 PM 75.2 °F 66.2 °F 73% 30.15 in 6.2 mi NE 19.6 mph - N/A   Partly Cloudy
10:50 PM 73.4 °F 66.2 °F 78% 30.15 in 6.2 mi NE 19.6 mph - N/A   Partly Cloudy
11:20 PM 73.4 °F 66.2 °F 78% 30.15 in 6.2 mi NE 19.6 mph - N/A   Partly Cloudy
11:50 PM 73.4 °F 66.2 °F 78% 30.15 in 6.2 mi NE 17.3 mph - N/A   Partly Cloudy